timestamp,wind_dir_avg,wind_spd_avg,wind_spd_max_dir,wind_spd_gust,battery_voltage,lat,long
2023-07-19 00:04:00+00:00,194.0,8.31,196.0,8.8,12.81,47.59359,-54.27349
2023-07-19 00:14:01+00:00,190.0,6.36,195.0,7.1,12.41,47.59359,-54.27349
2023-07-19 00:24:01+00:00,191.0,6.76,197.0,7.96,12.41,47.59359,-54.27349
2023-07-19 00:34:01+00:00,198.0,7.41,199.0,8.33,12.41,47.59359,-54.27349
2023-07-19 00:44:01+00:00,209.0,7.45,225.0,8.78,12.41,47.59359,-54.27349
2023-07-19 00:54:01+00:00,206.0,7.21,212.0,8.79,12.41,47.59359,-54.27349
2023-07-19 01:04:01+00:00,227.0,9.82,231.0,11.75,12.41,47.59359,-54.27349
2023-07-19 01:14:01+00:00,207.0,7.79,207.0,8.99,12.41,47.59359,-54.27349
2023-07-19 01:24:01+00:00,201.0,8.08,206.0,8.89,12.41,47.59359,-54.27349
2023-07-19 01:34:01+00:00,202.0,6.83,203.0,7.46,12.41,47.59359,-54.27349
2023-07-19 01:44:01+00:00,197.0,6.61,199.0,7.47,12.41,47.59359,-54.27349
2023-07-19 01:54:01+00:00,197.0,7.09,201.0,8.13,12.41,47.59359,-54.27349
2023-07-19 02:04:01+00:00,197.0,6.55,185.0,7.66,12.41,47.59359,-54.27349
2023-07-19 02:14:00+00:00,200.0,6.6,198.0,7.52,12.41,47.59359,-54.27349
2023-07-19 02:24:00+00:00,202.0,6.0,204.0,7.11,12.41,47.59359,-54.27349
2023-07-19 02:34:00+00:00,213.0,6.28,212.0,7.21,12.41,47.59359,-54.27349
2023-07-19 02:44:00+00:00,211.0,5.76,215.0,6.44,12.41,47.59359,-54.27349
2023-07-19 02:54:00+00:00,205.0,6.83,203.0,7.67,12.41,47.59359,-54.27349
2023-07-19 03:04:00+00:00,201.0,6.88,197.0,7.76,12.41,47.59359,-54.27349
2023-07-19 03:14:00+00:00,199.0,6.65,201.0,7.29,12.33,47.59359,-54.27349
2023-07-19 03:24:00+00:00,202.0,7.16,203.0,8.0,12.33,47.59359,-54.27349
2023-07-19 03:34:00+00:00,206.0,6.69,204.0,7.53,12.33,47.59359,-54.27349
2023-07-19 03:44:00+00:00,207.0,6.81,208.0,7.94,12.33,47.59359,-54.27349
2023-07-19 03:54:00+00:00,205.0,6.43,203.0,7.09,12.33,47.59359,-54.27349
2023-07-19 04:04:00+00:00,203.0,6.15,215.0,7.23,12.33,47.59359,-54.27349
2023-07-19 04:14:00+00:00,208.0,7.06,206.0,8.14,12.41,47.59359,-54.27349
2023-07-19 04:24:00+00:00,209.0,7.04,212.0,7.65,12.41,47.59359,-54.27349
2023-07-19 04:34:00+00:00,205.0,7.28,206.0,8.12,12.41,47.59359,-54.27349
2023-07-19 04:44:00+00:00,201.0,7.4,201.0,7.99,12.41,47.59359,-54.27349
2023-07-19 04:54:00+00:00,204.0,6.77,201.0,7.5,12.41,47.59359,-54.27349
2023-07-19 05:04:00+00:00,203.0,6.71,213.0,7.94,12.41,47.59359,-54.27349
2023-07-19 05:14:00+00:00,205.0,6.48,204.0,7.16,12.33,47.59359,-54.27349
2023-07-19 05:24:00+00:00,201.0,7.38,204.0,8.29,12.33,47.59359,-54.27349
2023-07-19 05:34:00+00:00,203.0,8.0,210.0,8.93,12.33,47.59359,-54.27349
2023-07-19 05:44:00+00:00,218.0,9.71,230.0,12.26,12.33,47.59359,-54.27349
2023-07-19 05:54:00+00:00,216.0,8.64,232.0,11.04,12.33,47.59359,-54.27349
2023-07-19 06:04:00+00:00,222.0,10.26,231.0,11.99,12.33,47.59359,-54.27349
2023-07-19 06:14:00+00:00,209.0,7.97,226.0,10.75,12.33,47.59359,-54.27349
2023-07-19 06:24:00+00:00,212.0,7.65,232.0,11.24,12.33,47.59359,-54.27349
2023-07-19 06:34:00+00:00,213.0,7.91,224.0,9.29,12.33,47.59359,-54.27349
2023-07-19 06:44:00+00:00,211.0,6.78,215.0,7.47,12.33,47.59359,-54.27349
2023-07-19 06:54:00+00:00,211.0,7.21,211.0,7.98,12.33,47.59359,-54.27349
2023-07-19 07:04:00+00:00,208.0,6.96,211.0,7.66,12.33,47.59359,-54.27349
2023-07-19 07:14:00+00:00,194.0,6.16,201.0,7.0,12.25,47.59359,-54.27349
2023-07-19 07:24:00+00:00,192.0,6.51,211.0,7.53,12.25,47.59359,-54.27349
2023-07-19 07:34:00+00:00,202.0,7.08,225.0,10.18,12.25,47.59359,-54.27349
2023-07-19 07:44:00+00:00,206.0,7.7,224.0,9.76,12.25,47.59359,-54.27349
2023-07-19 07:54:00+00:00,169.0,6.27,172.0,6.86,12.25,47.59359,-54.27349
2023-07-19 08:04:00+00:00,161.0,5.81,158.0,6.38,12.25,47.59359,-54.27349
2023-07-19 08:14:00+00:00,202.0,7.18,214.0,8.61,12.25,47.59359,-54.27349
2023-07-19 08:24:00+00:00,210.0,7.26,219.0,8.45,12.25,47.59359,-54.27349
2023-07-19 08:34:00+00:00,167.0,6.08,157.0,6.77,12.25,47.59359,-54.27349
2023-07-19 08:44:00+00:00,153.0,5.61,157.0,7.01,12.25,47.59359,-54.27349
2023-07-19 08:54:00+00:00,161.0,4.29,154.0,4.79,12.25,47.59359,-54.27349
2023-07-19 09:04:00+00:00,182.0,4.52,216.0,5.85,12.25,47.59359,-54.27349
2023-07-19 09:14:00+00:00,135.0,4.2,141.0,4.83,12.25,47.59359,-54.27349
2023-07-19 09:24:00+00:00,152.0,5.98,147.0,6.58,12.25,47.59359,-54.27349
2023-07-19 09:34:00+00:00,163.0,5.85,158.0,6.48,12.25,47.59359,-54.27349
2023-07-19 09:44:00+00:00,175.0,5.99,210.0,6.98,12.25,47.59359,-54.27349
2023-07-19 09:54:00+00:00,197.0,7.21,212.0,8.72,12.25,47.59359,-54.27349
2023-07-19 10:04:00+00:00,315.0,0.01,175.0,0.0,12.25,47.59359,-54.27349
2023-07-19 10:14:00+00:00,315.0,0.01,175.0,0.0,13.37,47.59359,-54.27349
2023-07-19 10:24:00+00:00,315.0,0.01,193.0,0.0,13.37,47.59359,-54.27349
2023-07-19 10:34:00+00:00,205.0,6.48,206.0,6.92,13.37,47.59359,-54.27349
2023-07-19 10:44:00+00:00,203.0,6.02,203.0,6.58,13.37,47.59359,-54.27349
2023-07-19 10:54:00+00:00,207.0,5.34,213.0,5.64,13.37,47.59359,-54.27349
2023-07-19 11:04:00+00:00,200.0,5.8,203.0,6.31,13.37,47.59359,-54.27349
2023-07-19 11:14:01+00:00,205.0,5.52,205.0,5.85,13.29,47.59359,-54.27349
2023-07-19 11:24:01+00:00,201.0,5.97,203.0,6.44,13.29,47.59359,-54.27349
2023-07-19 11:34:01+00:00,203.0,6.08,199.0,7.4,13.29,47.59359,-54.27349
2023-07-19 11:44:01+00:00,201.0,5.6,201.0,6.1,13.29,47.59359,-54.27349
2023-07-19 11:54:01+00:00,197.0,6.17,197.0,6.76,13.29,47.59359,-54.27349
2023-07-19 12:04:01+00:00,201.0,6.18,204.0,6.84,13.29,47.59359,-54.27349
2023-07-19 12:14:00+00:00,198.0,5.65,201.0,6.14,13.6,47.59359,-54.27349
2023-07-19 12:24:00+00:00,190.0,5.56,188.0,6.18,13.6,47.59359,-54.27349
2023-07-19 12:34:00+00:00,195.0,5.55,198.0,6.32,13.6,47.59359,-54.27349
2023-07-19 12:44:00+00:00,193.0,4.68,194.0,5.14,13.6,47.59359,-54.27349
2023-07-19 12:54:00+00:00,196.0,6.19,195.0,6.91,13.6,47.59359,-54.27349
2023-07-19 13:04:00+00:00,195.0,6.07,192.0,7.06,13.6,47.59359,-54.27349
2023-07-19 13:14:00+00:00,194.0,6.61,197.0,7.32,13.6,47.59359,-54.27349
2023-07-19 13:24:00+00:00,198.0,8.39,200.0,9.2,13.6,47.59359,-54.27349
2023-07-19 13:34:00+00:00,200.0,7.97,204.0,9.12,13.6,47.59359,-54.27349
2023-07-19 13:44:00+00:00,201.0,7.71,204.0,8.76,13.6,47.59359,-54.27349
2023-07-19 13:54:00+00:00,198.0,7.82,200.0,8.69,13.6,47.59359,-54.27349
2023-07-19 14:04:00+00:00,202.0,7.13,204.0,7.98,13.6,47.59359,-54.27349
2023-07-19 14:14:00+00:00,197.0,7.14,201.0,7.91,13.68,47.59359,-54.27349
2023-07-19 14:24:00+00:00,197.0,7.46,198.0,8.19,13.68,47.59359,-54.27349
2023-07-19 14:34:00+00:00,189.0,7.28,191.0,7.97,13.68,47.59359,-54.27349
2023-07-19 14:44:00+00:00,187.0,7.02,188.0,7.65,13.68,47.59359,-54.27349
2023-07-19 14:54:00+00:00,187.0,7.1,191.0,8.19,13.68,47.59359,-54.27349
2023-07-19 15:04:00+00:00,192.0,7.73,194.0,8.91,13.68,47.59359,-54.27349
2023-07-19 15:14:00+00:00,197.0,7.64,192.0,8.35,13.68,47.59359,-54.27349
2023-07-19 15:24:00+00:00,193.0,7.95,196.0,8.65,13.68,47.59359,-54.27349
2023-07-19 15:34:00+00:00,198.0,7.83,205.0,9.49,13.68,47.59359,-54.27349
2023-07-19 15:44:00+00:00,201.0,8.6,202.0,9.48,13.68,47.59359,-54.27349
2023-07-19 15:54:00+00:00,201.0,9.38,214.0,10.97,13.68,47.59359,-54.27349
2023-07-19 16:04:00+00:00,197.0,9.45,200.0,10.06,13.68,47.59359,-54.27349
2023-07-19 16:14:00+00:00,196.0,9.11,195.0,9.89,14.32,47.59359,-54.27349
2023-07-19 16:24:00+00:00,203.0,9.18,221.0,10.81,14.32,47.59359,-54.27349
2023-07-19 16:34:00+00:00,205.0,9.91,210.0,11.45,14.32,47.59359,-54.27349
2023-07-19 16:44:00+00:00,203.0,10.16,222.0,12.27,14.32,47.59359,-54.27349
2023-07-19 16:54:00+00:00,201.0,10.29,218.0,12.39,14.32,47.59359,-54.27349
2023-07-19 17:04:00+00:00,203.0,9.78,214.0,11.94,14.32,47.59359,-54.27349
2023-07-19 17:14:00+00:00,200.0,9.4,202.0,10.27,14.24,47.59359,-54.27349
2023-07-19 17:24:00+00:00,220.0,12.25,223.0,14.21,14.24,47.59359,-54.27349
2023-07-19 17:34:00+00:00,219.0,11.83,222.0,13.63,14.24,47.59359,-54.27349
2023-07-19 17:44:00+00:00,220.0,11.48,226.0,13.2,14.24,47.59359,-54.27349
2023-07-19 17:54:00+00:00,211.0,10.58,220.0,12.37,14.24,47.59359,-54.27349
2023-07-19 18:04:00+00:00,216.0,11.55,223.0,13.61,14.24,47.59359,-54.27349
2023-07-19 18:14:00+00:00,206.0,10.11,214.0,12.28,13.92,47.59359,-54.27349
2023-07-19 18:24:00+00:00,201.0,9.18,204.0,10.68,13.92,47.59359,-54.27349
2023-07-19 18:34:00+00:00,205.0,8.84,222.0,10.8,13.92,47.59359,-54.27349
2023-07-19 18:44:00+00:00,200.0,8.46,195.0,9.37,13.92,47.59359,-54.27349
2023-07-19 18:54:00+00:00,200.0,9.25,221.0,10.64,13.92,47.59359,-54.27349
2023-07-19 19:04:00+00:00,202.0,8.1,208.0,9.07,13.92,47.59359,-54.27349
2023-07-19 19:14:00+00:00,204.0,9.63,215.0,11.15,13.68,47.59359,-54.27349
2023-07-19 19:24:00+00:00,204.0,9.37,220.0,11.55,13.68,47.59359,-54.27349
2023-07-19 19:34:00+00:00,198.0,9.41,209.0,10.84,13.68,47.59359,-54.27349
2023-07-19 19:44:00+00:00,192.0,8.91,194.0,9.92,13.68,47.59359,-54.27349
2023-07-19 19:54:00+00:00,199.0,7.99,196.0,8.77,13.68,47.59359,-54.27349
2023-07-19 20:04:00+00:00,200.0,8.0,206.0,8.76,13.68,47.59359,-54.27349
2023-07-19 20:14:00+00:00,192.0,8.09,192.0,8.89,13.68,47.59359,-54.27349
2023-07-19 20:24:00+00:00,198.0,7.94,201.0,9.58,13.68,47.59359,-54.27349
2023-07-19 20:34:00+00:00,195.0,7.97,197.0,8.85,13.68,47.59359,-54.27349
2023-07-19 20:44:00+00:00,200.0,8.3,206.0,9.1,13.68,47.59359,-54.27349
2023-07-19 20:54:00+00:00,194.0,8.2,194.0,9.26,13.68,47.59359,-54.27349
2023-07-19 21:04:00+00:00,191.0,8.08,191.0,8.86,13.68,47.59359,-54.27349
2023-07-19 21:14:01+00:00,200.0,8.29,203.0,9.24,13.6,47.59359,-54.27349
2023-07-19 21:24:01+00:00,206.0,6.91,211.0,8.17,13.6,47.59359,-54.27349
2023-07-19 21:34:01+00:00,204.0,7.32,209.0,8.15,13.6,47.59359,-54.27349
2023-07-19 21:44:01+00:00,206.0,7.57,204.0,9.06,13.6,47.59359,-54.27349
2023-07-19 21:54:01+00:00,202.0,7.9,202.0,8.88,13.6,47.59359,-54.27349
2023-07-19 22:04:01+00:00,198.0,7.74,197.0,8.6,13.6,47.59359,-54.27349
2023-07-19 22:14:00+00:00,196.0,7.99,198.0,8.94,13.37,47.59359,-54.27349
2023-07-19 22:24:00+00:00,197.0,8.47,200.0,9.61,13.37,47.59359,-54.27349
2023-07-19 22:34:00+00:00,203.0,7.66,204.0,8.86,13.37,47.59359,-54.27349
2023-07-19 22:44:00+00:00,206.0,8.76,215.0,9.95,13.37,47.59359,-54.27349
2023-07-19 22:54:00+00:00,213.0,8.22,227.0,11.03,13.37,47.59359,-54.27349
2023-07-19 23:04:00+00:00,216.0,9.52,227.0,11.71,13.37,47.59359,-54.27349
2023-07-19 23:14:00+00:00,221.0,9.88,230.0,12.72,12.81,47.59359,-54.27349
2023-07-19 23:24:00+00:00,219.0,9.99,225.0,12.17,12.81,47.59359,-54.27349
2023-07-19 23:34:00+00:00,211.0,8.58,225.0,11.15,12.81,47.59359,-54.27349
2023-07-19 23:44:00+00:00,218.0,7.21,222.0,8.95,12.81,47.59359,-54.27349
2023-07-19 23:54:00+00:00,213.0,7.33,221.0,8.98,12.81,47.59359,-54.27349
